Simultaneous Nadir Overpasses (SNOs) Predictions

Prediction of SNOs between GOES-17 and AQUA Satellite Orbit:

Table of predicted SNOs for the next 14.0 days since TLE Epoch: 9/23/2023
Index Date Time (GOES-17) GOES-17 Lat,Lon AQUA Lat,Lon Distance(km) Time Diff (sec)
1 09/23/2023 20:53:49 0.02,-104.68 0.03,-104.58 10.43 80
2 09/25/2023 20:39:14 0.01,-104.67 0.78,-101.02 415.11 80
3 09/26/2023 08:59:52 -0.01,-104.71 0.24,-106.03 149.64 80
4 09/28/2023 08:42:36 -0.00,-104.71 -0.51,-102.47 255.84 80
5 09/28/2023 21:03:22 0.00,-104.67 -0.59,-107.49 320.14 80
6 09/30/2023 20:51:25 0.00,-104.68 0.17,-103.92 86.13 80
7 10/01/2023 09:12:03 -0.00,-104.72 0.89,-108.92 477.77 80
8 10/02/2023 20:36:47 -0.00,-104.68 0.91,-100.35 492.77 80
9 10/03/2023 08:57:25 0.01,-104.72 0.13,-105.35 71.17 80
10 10/05/2023 08:40:06 0.01,-104.72 -0.62,-101.77 335.68 80
11 10/05/2023 21:00:52 -0.01,-104.68 -0.43,-106.80 240.34 80
